Location: Hollin Hills
(38.7573°N, 77.0661°W)
Time: 11:35:53
(UTC+00:00)

ISS - Pass Details

Date: 27 April 2026
Orbit: 414 x 424 km, 51.6° (Epoch: 11 May)

Event Time Altitude Azimuth Distance (km) Brightness Sun altitude
Exits shadow 07:25:38 17° 11° (N) 1,136 -0.9 -28.1°
Drops below altitude 10° 07:26:54 10° 28° (NNE) 1,500 0.0 -27.9°
Sets 07:29:18 0° 44° (NE) 2,368 1.3 -27.6°
